Tracking 32140 objects as of 13-Nov-2025
HD Live streaming from Space Station
objects crossing your sky now

LINUSS2

Track LINUSS2 now!


NORAD ID: 55247
Int'l Code: 2022-144H
Perigee: 36,114.5 km
Apogee: 36,165.0 km
Inclination: 4.9 °
Period: 1,453.8 minutes
Semi major axis: 42510 km
RCS: Unknown
Launch date: November 1, 2022
Source: United States (US)
Launch site: AIR FORCE EASTERN TEST RANGE (AFETR)
Your satellite tracking list
Your tracking list is empty




NASA's NSSDC Master Catalog

Two Line Element Set (TLE):
1 55247U 22144H   25317.64209064 -.00000065  00000-0  00000-0 0  9997
2 55247   4.8512  65.6558 0005933 274.9453  41.2079  0.99050104  9576
Source of the keplerian elements: AFSPC